Flag for Austria Weather past 2 weeks in Scheibbs, Lower Austria, Austria

Now
67 °F

Mild.


Feels Like: 67 °F
Forecast: 51 / 59 °F
Wind: 2 mph from Southwest

Location: Amstetten

Current Time: Sep 4, 2015 at 2:38:36 PM

Latest Report: Sep 4, 2015 at 1:00 PM


Visibility: N/A

Pressure: 30.01 "Hg

Humidity: 67%

Dew point: 55 °F

Location of ScheibbsLocation

Historic Weather in Scheibbs — Graph

°F

Scheibbs temperature yesterday

Maximum temperature yesterday: 69 °F (at 4:00 PM)
Minimum temperature yesterday: 57 °F (at 6:00 AM)
Average temperature yesterday: 62 °F

Past Weeks' High & Low Weather Summary

 TemperatureHumidityPressure
High95 °F (Aug 30, 5:00 PM)100% (Aug 22, 6:00 AM)30.26 "Hg (Aug 22, 6:00 AM)
Low47 °F (Aug 26, 6:00 AM)22% (Sep 1, 3:00 PM)29.65 "Hg (Sep 1, 7:00 PM)
Average69 °F67%30.01 "Hg
* Reported Aug 20 1:00 PM — Sep 4 1:00 PM, Scheibbs, Weather by CustomWeather, © 2015

Note: Actual official high and low records may vary slightly from our data, if they occured in-between our weather recording intervals... More about our weather records

Advertising

Scheibbs weather history for previous 24 hours

 ConditionsComfort  
Time TempWeatherWind HumidityBarometerVisibility
1:00 PM
Fri, Sep 4
67 °FMild.2 mph67%30.01 "HgN/A
12:00 PM64 °FMild.2 mph74%30.03 "HgN/A
11:00 AM64 °FMild.3 mph72%30.03 "HgN/A
10:00 AM62 °FCool.2 mph81%30.03 "HgN/A
9:00 AM59 °FCool.1 mph90%30.02 "HgN/A
8:00 AM57 °FOvercast.1 mph93%30.02 "HgN/A
7:00 AM56 °FCool.No wind98%30.02 "HgN/A
6:00 AM56 °FFog.2 mph96%30.01 "HgN/A
5:00 AM56 °FCool.2 mph96%30.01 "HgN/A
4:00 AM57 °FFog.2 mph96%30.01 "HgN/A
3:00 AM57 °FFog.1 mph98%29.99 "HgN/A
2:00 AM57 °FCool.1 mph97%30.00 "HgN/A
1:00 AM58 °FFog.3 mph95%29.99 "HgN/A
12:00 AM60 °FCool.2 mph96%29.98 "HgN/A
11:00 PM
Thu, Sep 3
59 °FCool.6 mph95%29.94 "HgN/A
10:00 PM62 °FSprinkles. Overcast.2 mph97%29.91 "HgN/A
9:00 PM62 °FFog.1 mph98%29.90 "HgN/A
8:00 PM62 °FCool.1 mph97%29.89 "HgN/A
7:00 PM65 °FMild.1 mph88%29.88 "HgN/A
6:00 PM68 °FMild.1 mph71%29.87 "HgN/A
5:00 PM69 °FMild.1 mph64%29.87 "HgN/A
4:00 PM69 °FMild.2 mph67%29.88 "HgN/A
3:00 PM69 °FMild.2 mph64%29.90 "HgN/A
2:00 PM69 °FMild.3 mph64%29.90 "HgN/A
Weather by CustomWeather, © 2015

See weather overviewHow to use our weather pages